Showing default

JILIN-01-04, 43022

Orbit data source: Space-Track

JILIN-01-04, 43022 is a payload satellite owned by Changguang WJ (CN) in SSO that was launched on Tue, 21 Nov 2017 UTC via a CHANG ZHENG 6 launch vehicle from the Taiyaun Space Center, China (TSC). Payload-class satellites include a variety of spacecraft equipped with specific instruments for various scientific and technological missions. These include communications satellites like Starlink; space stations such as the ISS; scientific satellites like the Hubble; Earth observation satellites from companies like Planet Labs, Umbra, and HawkEye 360; GPS; miniature CubeSats for education and research; and military/defense satellites.

Loading next visibility...
Identifier
43022, 2017-074A
Orbit
SSO
Country
Flag of CNCN / PRC
Related business
Manufacturer
HARB/CIOMP
Mission
Operational Commercial Imaging
Bus & Motor
JL-1, Unknown motor
Mass
95 kg wet, 95 kg dry
Launch date (UTC)
2017-11-21 (8 years ago)
Launch vehicle
CHANG ZHENG 6
Launch site
Taiyaun Space Center, China (TSC)
Object type
Payload
Rocket body
Debris
Shape & HBR
Box + 2 Pan, 0.8 m
Radar Cross Section
2.000 m², Medium (>0.1 m² and < 1m²)

Expand to show TLE details & history
Last TLE update: 10 hours ago

TLE from 10 hours ago
0 JILIN-01-04
1 43022U 17074A   25302.54051392  .00015114  00000-0  44311-3 0  9999
2 43022  97.4804  42.3676 0003545 310.6218  49.4716 15.35282787438791
Epoch: 2025-10-29T12:58Z
TLE epoch observation values (Epoch: 2025-10-29T12:58:20.402Z)
Latitude
-0.00009°
Longitude
169.67042°
Altitude
461.614 km
Speed
7.637 km/s
True Right ascension
02h 49m 28s
True Declination
0° 00' 00"
Sunlit
Object was in full shadow at epoch
Visualization orbit readout
Latitude
Unknown
Longitude
Unknown
Altitude
Unknown
Speed
Unknown
Apparent Right ascension
Unknown
Apparent Declination
Unknown
Sunlit
N/A
Visualization observer readout
Local Sidereal Time
19:00:42
Azimuth
Unknown
Elevation
Unknown
Doppler factor
Unknown
Orbital elements
Apogee altitude
459.452 km
Perigee altitude
454.606 km
Semi-major axis
6,835.166 km
Eccentricity
0.00035
Inclination
97.4804°
RAAN
42.3676°
Arg. of periapsis
310.6218°
True anomaly
49.50249°
Mean anomaly
49.4716°
Eccentric anomaly
49.48704°
Mean motion
3.84078 °/min
Orbital period
93.73 mins
BSTAR
0.00044311
Loading maneuver chart data...
Computing Atmospheric mass density...
Loading historical data...
Loading historical data...
Loading historical data...
Loading historical data...
Loading historical data...
Loading historical data...
Loading historical data...
Other satellites on launch #74 in the year 2017 (2017-11-21 UTC)

Documentation

Showing up to 5 results
|